Time,TemperatureF,DewpointF,PressureIn,WindDirection,WindDirectionDegrees,WindSpeedMPH,WindSpeedGustMPH,Humidity,HourlyPrecipIn,Conditions,Clouds,dailyrainin,SoftwareType,DateUTC
2013-06-24 00:00:00,71.0,-99.9,-100.00,South,186,18.0,33.0,-999,-99.99,,,-99.99,,2013-06-24 06:00:00,
2013-06-24 00:57:00,71.0,-99.9,-100.00,South,186,18.0,33.0,-999,-99.99,,,-99.99,,2013-06-24 06:57:00,
2013-06-24 01:00:00,69.0,-99.9,-100.00,South,182,15.0,21.0,-999,-99.99,,,-99.99,,2013-06-24 07:00:00,
2013-06-24 01:58:00,69.0,-99.9,-100.00,South,182,15.0,21.0,-999,-99.99,,,-99.99,,2013-06-24 07:58:00,
2013-06-24 02:00:00,66.0,-99.9,-100.00,South,170,9.0,25.0,-999,-99.99,,,-99.99,,2013-06-24 08:00:00,
2013-06-24 02:57:00,66.0,-99.9,-100.00,South,170,9.0,25.0,-999,-99.99,,,-99.99,,2013-06-24 08:57:00,
2013-06-24 03:10:00,68.0,-99.9,-100.00,SSW,209,18.0,38.0,-999,-99.99,,,-99.99,,2013-06-24 09:10:00,
2013-06-24 04:00:00,68.0,-99.9,-100.00,SSW,209,18.0,38.0,-999,-99.99,,,-99.99,,2013-06-24 10:00:00,
2013-06-24 04:20:00,73.0,-99.9,-100.00,West,271,16.0,30.0,-999,-99.99,,,-99.99,,2013-06-24 10:20:00,
2013-06-24 05:00:00,71.0,-99.9,-100.00,SW,225,15.0,18.0,-999,-99.99,,,-99.99,,2013-06-24 11:00:00,
2013-06-24 05:18:00,73.0,-99.9,-100.00,West,271,16.0,30.0,-999,-99.99,,,-99.99,,2013-06-24 11:18:00,
2013-06-24 05:59:00,71.0,-99.9,-100.00,SW,225,15.0,18.0,-999,-99.99,,,-99.99,,2013-06-24 11:59:00,
2013-06-24 06:00:00,68.0,-99.9,-100.00,NNE,18,6.0,8.0,-999,-99.99,,,-99.99,,2013-06-24 12:00:00,
2013-06-24 06:56:00,68.0,-99.9,-100.00,NNE,18,6.0,8.0,-999,-99.99,,,-99.99,,2013-06-24 12:56:00,
2013-06-24 07:00:00,68.0,-99.9,-100.00,SSE,162,12.0,19.0,-999,-99.99,,,-99.99,,2013-06-24 13:00:00,
2013-06-24 07:58:00,68.0,-99.9,-100.00,SSE,162,12.0,19.0,-999,-99.99,,,-99.99,,2013-06-24 13:58:00,
2013-06-24 08:00:00,68.0,-99.9,-100.00,SW,214,11.0,16.0,-999,-99.99,,,-99.99,,2013-06-24 14:00:00,
2013-06-24 09:00:00,71.0,-99.9,-100.00,West,279,11.0,16.0,-999,-99.99,,,-99.99,,2013-06-24 15:00:00,
2013-06-24 09:58:00,71.0,-99.9,-100.00,West,279,11.0,16.0,-999,-99.99,,,-99.99,,2013-06-24 15:58:00,
2013-06-24 10:00:00,75.0,-99.9,-100.00,WSW,258,4.0,9.0,-999,-99.99,,,-99.99,,2013-06-24 16:00:00,
2013-06-24 10:57:00,75.0,-99.9,-100.00,WSW,258,4.0,9.0,-999,-99.99,,,-99.99,,2013-06-24 16:57:00,
2013-06-24 11:00:00,78.0,-99.9,-100.00,SSW,192,9.0,11.0,-999,-99.99,,,-99.99,,2013-06-24 17:00:00,
2013-06-24 12:00:00,82.0,-99.9,-100.00,SE,144,12.0,13.0,-999,-99.99,,,-99.99,,2013-06-24 18:00:00,
2013-06-24 12:57:00,82.0,-99.9,-100.00,SE,144,12.0,13.0,-999,-99.99,,,-99.99,,2013-06-24 18:57:00,
2013-06-24 13:00:00,82.0,-99.9,-100.00,SSE,165,11.0,13.0,-999,-99.99,,,-99.99,,2013-06-24 19:00:00,
2013-06-24 13:57:00,82.0,-99.9,-100.00,SSE,165,11.0,13.0,-999,-99.99,,,-99.99,,2013-06-24 19:57:00,
2013-06-24 14:56:00,84.0,-99.9,-100.00,SSW,195,12.0,17.0,-999,-99.99,,,-99.99,,2013-06-24 20:56:00,
2013-06-24 15:00:00,86.0,-99.9,-100.00,SSE,157,11.0,20.0,-999,-99.99,,,-99.99,,2013-06-24 21:00:00,
2013-06-24 15:56:00,86.0,-99.9,-100.00,SSE,157,11.0,20.0,-999,-99.99,,,-99.99,,2013-06-24 21:56:00,
2013-06-24 16:00:00,84.0,-99.9,-100.00,SSE,157,13.0,16.0,-999,-99.99,,,-99.99,,2013-06-24 22:00:00,
2013-06-24 16:56:00,84.0,-99.9,-100.00,SSE,157,13.0,16.0,-999,-99.99,,,-99.99,,2013-06-24 22:56:00,
2013-06-24 17:00:00,86.0,-99.9,-100.00,SSE,151,12.0,15.0,-999,-99.99,,,-99.99,,2013-06-24 23:00:00,
2013-06-24 17:56:00,86.0,-99.9,-100.00,SSE,151,12.0,15.0,-999,-99.99,,,-99.99,,2013-06-24 23:56:00,
2013-06-24 18:00:00,84.0,-99.9,-100.00,SSE,166,8.0,16.0,-999,-99.99,,,-99.99,,2013-06-25 00:00:00,
2013-06-24 18:57:00,84.0,-99.9,-100.00,SSE,166,8.0,16.0,-999,-99.99,,,-99.99,,2013-06-25 00:57:00,
2013-06-24 19:00:00,84.0,-99.9,-100.00,SE,144,12.0,15.0,-999,-99.99,,,-99.99,,2013-06-25 01:00:00,
2013-06-24 19:59:00,84.0,-99.9,-100.00,SE,144,12.0,15.0,-999,-99.99,,,-99.99,,2013-06-25 01:59:00,
2013-06-24 21:00:00,77.0,-99.9,-100.00,ESE,121,13.0,18.0,-999,-99.99,,,-99.99,,2013-06-25 03:00:00,
2013-06-24 22:00:00,73.0,-99.9,-100.00,ESE,112,6.0,9.0,-999,-99.99,,,-99.99,,2013-06-25 04:00:00,
2013-06-24 22:52:00,73.0,-99.9,-100.00,ESE,112,6.0,9.0,-999,-99.99,,,-99.99,,2013-06-25 04:52:00,
2013-06-24 23:00:00,71.0,-99.9,-100.00,ENE,70,6.0,6.0,-999,-99.99,,,-99.99,,2013-06-25 05:00:00,
2013-06-24 23:52:00,71.0,-99.9,-100.00,ENE,70,6.0,6.0,-999,-99.99,,,-99.99,,2013-06-25 05:52:00,